Time,TemperatureF,DewpointF,PressureIn,WindDirection,WindDirectionDegrees,WindSpeedMPH,WindSpeedGustMPH,Humidity,HourlyPrecipIn,Conditions,Clouds,dailyrainin,SoftwareType,DateUTC
2013-04-06 00:04:00,48.8,46.0,29.81,SE,130,0.0,0.0,90,0.27,,,0.18,Wunderground v.1.15,2013-04-06 07:04:00,
2013-04-06 00:09:00,48.6,46.1,29.80,SE,130,0.0,0.0,91,0.16,,,0.20,Wunderground v.1.15,2013-04-06 07:09:00,
2013-04-06 00:15:00,48.6,46.1,29.80,SE,138,0.0,0.0,91,0.18,,,0.21,Wunderground v.1.15,2013-04-06 07:15:00,
2013-04-06 00:20:00,48.7,46.2,29.80,SE,138,0.0,0.0,91,0.14,,,0.22,Wunderground v.1.15,2013-04-06 07:20:00,
2013-04-06 00:26:00,48.7,46.2,29.80,SSE,166,0.0,0.0,91,0.12,,,0.23,Wunderground v.1.15,2013-04-06 07:26:00,
2013-04-06 00:31:00,48.7,46.2,29.80,SSE,166,0.0,0.0,91,0.08,,,0.24,Wunderground v.1.15,2013-04-06 07:31:00,
2013-04-06 00:36:00,48.7,46.2,29.80,SSE,166,0.0,0.0,91,0.11,,,0.25,Wunderground v.1.15,2013-04-06 07:36:00,
2013-04-06 00:42:00,48.7,46.2,29.79,SSE,166,0.0,0.0,91,0.10,,,0.26,Wunderground v.1.15,2013-04-06 07:42:00,
2013-04-06 00:47:00,48.8,46.3,29.79,SSE,159,0.0,0.0,91,0.09,,,0.26,Wunderground v.1.15,2013-04-06 07:47:00,
2013-04-06 00:52:00,48.8,46.3,29.79,SSE,167,0.0,0.0,91,0.08,,,0.27,Wunderground v.1.15,2013-04-06 07:52:00,
2013-04-06 00:57:00,48.8,46.3,29.78,SSE,150,2.0,2.0,91,0.06,,,0.27,Wunderground v.1.15,2013-04-06 07:57:00,
2013-04-06 01:03:00,48.8,46.3,29.78,SSE,148,2.0,2.0,91,0.04,,,0.27,Wunderground v.1.15,2013-04-06 08:03:00,
2013-04-06 01:09:00,48.7,46.2,29.78,SSE,157,2.0,2.0,91,0.00,,,0.27,Wunderground v.1.15,2013-04-06 08:09:00,
2013-04-06 01:14:00,48.7,46.2,29.77,SE,138,0.0,5.0,91,0.00,,,0.27,Wunderground v.1.15,2013-04-06 08:14:00,
2013-04-06 01:20:00,48.7,46.2,29.77,SSE,166,0.0,1.0,91,0.00,,,0.27,Wunderground v.1.15,2013-04-06 08:20:00,
2013-04-06 01:26:00,48.8,46.6,29.77,South,173,0.0,1.0,92,0.00,,,0.27,Wunderground v.1.15,2013-04-06 08:26:00,
2013-04-06 01:31:00,48.8,46.6,29.77,SSW,202,0.0,0.0,92,0.00,,,0.27,Wunderground v.1.15,2013-04-06 08:31:00,
2013-04-06 01:36:00,48.8,46.6,29.77,SSW,194,0.0,0.0,92,0.00,,,0.28,Wunderground v.1.15,2013-04-06 08:36:00,
2013-04-06 01:42:00,48.8,46.6,29.77,SSW,199,3.0,4.0,92,0.00,,,0.28,Wunderground v.1.15,2013-04-06 08:42:00,
2013-04-06 01:49:00,48.8,46.6,29.77,SSE,161,1.0,5.0,92,0.00,,,0.28,Wunderground v.1.15,2013-04-06 08:49:00,
2013-04-06 01:54:00,48.9,46.4,29.76,SSE,156,0.0,1.0,91,0.00,,,0.28,Wunderground v.1.15,2013-04-06 08:54:00,
2013-04-06 01:59:00,49.0,46.5,29.76,South,184,2.0,2.0,91,0.00,,,0.28,Wunderground v.1.15,2013-04-06 08:59:00,
2013-04-06 02:04:00,49.0,46.5,29.77,SSW,199,1.0,2.0,91,0.00,,,0.29,Wunderground v.1.15,2013-04-06 09:04:00,
2013-04-06 02:10:00,49.0,46.5,29.77,SSW,201,0.0,0.0,91,0.00,,,0.29,Wunderground v.1.15,2013-04-06 09:10:00,
2013-04-06 02:15:00,49.1,46.6,29.76,SSW,197,0.0,6.0,91,0.00,,,0.29,Wunderground v.1.15,2013-04-06 09:15:00,
2013-04-06 02:20:00,49.2,46.4,29.77,South,184,0.0,1.0,90,0.00,,,0.29,Wunderground v.1.15,2013-04-06 09:20:00,
2013-04-06 02:25:00,49.3,46.5,29.77,SW,221,1.0,6.0,90,0.00,,,0.29,Wunderground v.1.15,2013-04-06 09:25:00,
2013-04-06 02:30:00,49.7,46.6,29.78,SSW,194,11.0,15.0,89,0.00,,,0.29,Wunderground v.1.15,2013-04-06 09:30:00,
2013-04-06 02:35:00,50.1,46.4,29.78,SW,225,6.0,16.0,87,0.00,,,0.30,Wunderground v.1.15,2013-04-06 09:35:00,
2013-04-06 02:40:00,50.1,46.4,29.79,SW,235,3.0,7.0,87,0.56,,,0.33,Wunderground v.1.15,2013-04-06 09:40:00,
2013-04-06 02:45:00,49.9,46.5,29.79,SW,227,10.0,17.0,88,0.16,,,0.36,Wunderground v.1.15,2013-04-06 09:45:00,
2013-04-06 02:50:00,49.7,46.3,29.79,SSW,211,7.0,14.0,88,0.10,,,0.36,Wunderground v.1.15,2013-04-06 09:50:00,
2013-04-06 02:55:00,49.7,46.3,29.79,South,183,4.0,20.0,88,0.06,,,0.36,Wunderground v.1.15,2013-04-06 09:55:00,
2013-04-06 03:00:00,49.8,46.4,29.80,SW,223,6.0,9.0,88,0.04,,,0.36,Wunderground v.1.15,2013-04-06 10:00:00,
2013-04-06 03:05:00,49.9,46.2,29.80,SW,235,12.0,18.0,87,0.00,,,0.36,Wunderground v.1.15,2013-04-06 10:05:00,
2013-04-06 03:10:00,49.9,46.2,29.80,SW,217,4.0,11.0,87,0.00,,,0.36,Wunderground v.1.15,2013-04-06 10:10:00,
2013-04-06 03:16:00,49.7,46.0,29.80,South,179,15.0,15.0,87,0.00,,,0.36,Wunderground v.1.15,2013-04-06 10:16:00,
2013-04-06 03:21:00,49.7,46.0,29.80,SSE,166,11.0,13.0,87,0.00,,,0.36,Wunderground v.1.15,2013-04-06 10:21:00,
2013-04-06 03:26:00,49.6,45.9,29.81,WSW,238,9.0,13.0,87,0.00,,,0.36,Wunderground v.1.15,2013-04-06 10:26:00,
2013-04-06 03:31:00,49.6,45.9,29.81,WSW,239,3.0,11.0,87,0.00,,,0.36,Wunderground v.1.15,2013-04-06 10:31:00,
2013-04-06 03:36:00,49.7,46.0,29.82,SW,226,12.0,13.0,87,0.00,,,0.36,Wunderground v.1.15,2013-04-06 10:36:00,
2013-04-06 03:41:00,49.7,46.0,29.82,West,276,5.0,11.0,87,0.00,,,0.36,Wunderground v.1.15,2013-04-06 10:41:00,
2013-04-06 03:46:00,49.7,46.0,29.82,South,185,8.0,11.0,87,0.00,,,0.36,Wunderground v.1.15,2013-04-06 10:46:00,
2013-04-06 03:51:00,49.7,46.0,29.82,SW,215,4.0,10.0,87,0.00,,,0.36,Wunderground v.1.15,2013-04-06 10:51:00,
2013-04-06 03:56:00,49.7,46.0,29.83,South,170,6.0,17.0,87,0.00,,,0.36,Wunderground v.1.15,2013-04-06 10:56:00,
2013-04-06 04:01:00,49.7,46.0,29.83,SE,142,3.0,9.0,87,0.00,,,0.36,Wunderground v.1.15,2013-04-06 11:01:00,
2013-04-06 04:07:00,49.7,46.0,29.83,SSW,204,6.0,14.0,87,0.00,,,0.36,Wunderground v.1.15,2013-04-06 11:07:00,
2013-04-06 04:12:00,49.7,46.0,29.83,SSW,210,16.0,16.0,87,0.00,,,0.36,Wunderground v.1.15,2013-04-06 11:12:00,
2013-04-06 04:17:00,49.7,46.0,29.83,West,265,5.0,18.0,87,0.00,,,0.36,Wunderground v.1.15,2013-04-06 11:17:00,
2013-04-06 04:22:00,49.7,46.0,29.83,ENE,67,4.0,11.0,87,0.00,,,0.36,Wunderground v.1.15,2013-04-06 11:22:00,
2013-04-06 04:27:00,49.6,45.9,29.84,SSW,205,9.0,14.0,87,0.00,,,0.36,Wunderground v.1.15,2013-04-06 11:27:00,
2013-04-06 04:32:00,49.6,45.9,29.84,SW,223,4.0,11.0,87,0.00,,,0.36,Wunderground v.1.15,2013-04-06 11:32:00,
2013-04-06 04:33:00,49.6,45.9,29.84,SSW,202,3.0,11.0,87,0.00,,,0.36,Wunderground v.1.15,2013-04-06 11:33:00,
2013-04-06 04:38:00,49.6,46.2,29.84,SE,144,1.0,11.0,88,0.00,,,0.36,Wunderground v.1.15,2013-04-06 11:38:00,
2013-04-06 04:43:00,49.6,45.9,29.84,SSW,206,5.0,8.0,87,0.00,,,0.36,Wunderground v.1.15,2013-04-06 11:43:00,
2013-04-06 04:48:00,49.6,45.9,29.85,SSE,165,5.0,11.0,87,0.00,,,0.36,Wunderground v.1.15,2013-04-06 11:48:00,
2013-04-06 04:53:00,49.6,45.9,29.85,South,191,7.0,16.0,87,0.00,,,0.36,Wunderground v.1.15,2013-04-06 11:53:00,
2013-04-06 04:58:00,49.6,45.9,29.85,South,189,14.0,16.0,87,0.00,,,0.36,Wunderground v.1.15,2013-04-06 11:58:00,
2013-04-06 05:03:00,49.6,45.6,29.86,SSW,204,9.0,21.0,86,0.00,,,0.37,Wunderground v.1.15,2013-04-06 12:03:00,
2013-04-06 05:08:00,49.4,45.4,29.86,West,264,21.0,21.0,86,0.07,,,0.37,Wunderground v.1.15,2013-04-06 12:08:00,
2013-04-06 05:13:00,49.1,44.5,29.87,SW,223,10.0,18.0,84,0.07,,,0.38,Wunderground v.1.15,2013-04-06 12:13:00,
2013-04-06 05:18:00,48.5,43.6,29.86,SW,219,2.0,18.0,83,0.07,,,0.39,Wunderground v.1.15,2013-04-06 12:18:00,
2013-04-06 05:23:00,48.1,43.2,29.86,North,5,4.0,13.0,83,0.07,,,0.39,Wunderground v.1.15,2013-04-06 12:23:00,
2013-04-06 05:28:00,47.9,43.3,29.86,South,189,0.0,13.0,84,0.05,,,0.39,Wunderground v.1.15,2013-04-06 12:28:00,
2013-04-06 05:33:00,47.7,43.1,29.86,SSW,205,5.0,13.0,84,0.04,,,0.39,Wunderground v.1.15,2013-04-06 12:33:00,
2013-04-06 05:38:00,47.5,42.6,29.86,SSW,195,3.0,13.0,83,0.00,,,0.39,Wunderground v.1.15,2013-04-06 12:38:00,
2013-04-06 05:44:00,47.4,42.5,29.86,SSW,196,6.0,13.0,83,0.00,,,0.39,Wunderground v.1.15,2013-04-06 12:44:00,
2013-04-06 05:49:00,47.4,42.5,29.86,South,187,0.0,14.0,83,0.00,,,0.00,Wunderground v.1.15,2013-04-06 12:49:00,
2013-04-06 05:54:00,47.3,42.4,29.87,SSW,196,9.0,13.0,83,0.00,,,0.00,Wunderground v.1.15,2013-04-06 12:54:00,
2013-04-06 05:59:00,47.2,42.3,29.88,SE,132,5.0,13.0,83,0.00,,,0.00,Wunderground v.1.15,2013-04-06 12:59:00,
2013-04-06 06:04:00,47.1,42.2,29.88,WSW,251,4.0,16.0,83,0.00,,,0.00,Wunderground v.1.15,2013-04-06 13:04:00,
2013-04-06 06:09:00,47.0,42.1,29.88,SW,219,2.0,5.0,83,0.00,,,0.00,Wunderground v.1.15,2013-04-06 13:09:00,
2013-04-06 06:15:00,47.0,42.1,29.88,WSW,237,4.0,13.0,83,0.00,,,0.00,Wunderground v.1.15,2013-04-06 13:15:00,
2013-04-06 06:20:00,47.0,42.1,29.88,SSW,192,3.0,7.0,83,0.00,,,0.00,Wunderground v.1.15,2013-04-06 13:20:00,
2013-04-06 06:25:00,47.1,42.2,29.88,SSW,197,1.0,13.0,83,0.00,,,0.00,Wunderground v.1.15,2013-04-06 13:25:00,
2013-04-06 06:30:00,47.2,42.0,29.88,SW,222,0.0,10.0,82,0.00,,,0.00,Wunderground v.1.15,2013-04-06 13:30:00,
2013-04-06 06:35:00,47.2,42.0,29.88,NW,312,0.0,11.0,82,0.00,,,0.00,Wunderground v.1.15,2013-04-06 13:35:00,
2013-04-06 06:40:00,47.2,42.3,29.88,SW,220,9.0,10.0,83,0.00,,,0.00,Wunderground v.1.15,2013-04-06 13:40:00,
2013-04-06 06:45:00,47.0,42.1,29.88,SSW,194,9.0,15.0,83,0.00,,,0.00,Wunderground v.1.15,2013-04-06 13:45:00,
2013-04-06 06:50:00,46.9,42.3,29.87,SSW,194,4.0,7.0,84,0.00,,,0.00,Wunderground v.1.15,2013-04-06 13:50:00,
2013-04-06 06:55:00,46.7,42.4,29.87,SSW,196,8.0,11.0,85,0.00,,,0.00,Wunderground v.1.15,2013-04-06 13:55:00,
2013-04-06 07:00:00,46.6,42.3,29.87,South,188,5.0,9.0,85,0.00,,,0.00,Wunderground v.1.15,2013-04-06 14:00:00,
2013-04-06 07:05:00,46.5,42.5,29.87,SE,140,3.0,15.0,86,0.00,,,0.00,Wunderground v.1.15,2013-04-06 14:05:00,
2013-04-06 07:10:00,46.6,42.6,29.88,WNW,283,3.0,6.0,86,0.00,,,0.00,Wunderground v.1.15,2013-04-06 14:10:00,
2013-04-06 07:15:00,46.6,42.6,29.88,SSW,196,5.0,12.0,86,0.00,,,0.00,Wunderground v.1.15,2013-04-06 14:15:00,
2013-04-06 07:20:00,46.6,42.6,29.88,South,178,6.0,10.0,86,0.00,,,0.00,Wunderground v.1.15,2013-04-06 14:20:00,
2013-04-06 07:25:00,46.5,42.5,29.88,SW,226,11.0,13.0,86,0.00,,,0.00,Wunderground v.1.15,2013-04-06 14:25:00,
2013-04-06 07:30:00,46.5,42.2,29.88,West,277,10.0,16.0,85,0.00,,,0.00,Wunderground v.1.15,2013-04-06 14:30:00,
2013-04-06 07:35:00,46.6,42.3,29.88,WSW,244,10.0,17.0,85,0.00,,,0.00,Wunderground v.1.15,2013-04-06 14:35:00,
2013-04-06 07:40:00,46.7,42.4,29.89,South,176,7.0,20.0,85,0.00,,,0.00,Wunderground v.1.15,2013-04-06 14:40:00,
2013-04-06 07:45:00,46.8,42.5,29.89,SW,219,12.0,20.0,85,0.00,,,0.00,Wunderground v.1.15,2013-04-06 14:45:00,
2013-04-06 07:50:00,46.9,42.6,29.89,SSW,209,6.0,13.0,85,0.00,,,0.00,Wunderground v.1.15,2013-04-06 14:50:00,
2013-04-06 07:55:00,47.2,43.2,29.89,NE,53,4.0,13.0,86,0.00,,,0.00,Wunderground v.1.15,2013-04-06 14:55:00,
2013-04-06 08:01:00,47.7,43.4,29.89,South,173,4.0,11.0,85,0.00,,,0.00,Wunderground v.1.15,2013-04-06 15:01:00,
2013-04-06 08:06:00,47.7,43.1,29.89,South,177,3.0,13.0,84,0.00,,,0.00,Wunderground v.1.15,2013-04-06 15:06:00,
2013-04-06 08:11:00,47.6,43.3,29.89,SSE,165,7.0,12.0,85,0.00,,,0.00,Wunderground v.1.15,2013-04-06 15:11:00,
2013-04-06 08:16:00,47.5,43.2,29.89,SSE,155,7.0,17.0,85,0.00,,,0.00,Wunderground v.1.15,2013-04-06 15:16:00,
2013-04-06 08:21:00,47.4,43.1,29.89,South,189,5.0,17.0,85,0.00,,,0.00,Wunderground v.1.15,2013-04-06 15:21:00,
2013-04-06 08:26:00,47.3,43.3,29.89,SE,134,6.0,17.0,86,0.00,,,0.00,Wunderground v.1.15,2013-04-06 15:26:00,
2013-04-06 08:31:00,47.2,43.2,29.90,SSE,149,11.0,17.0,86,0.00,,,0.00,Wunderground v.1.15,2013-04-06 15:31:00,
2013-04-06 08:36:00,47.2,43.2,29.90,SW,228,7.0,19.0,86,0.00,,,0.00,Wunderground v.1.15,2013-04-06 15:36:00,
2013-04-06 08:41:00,47.1,42.8,29.90,SW,219,10.0,14.0,85,0.00,,,0.00,Wunderground v.1.15,2013-04-06 15:41:00,
2013-04-06 08:46:00,47.1,42.8,29.90,South,182,9.0,15.0,85,0.00,,,0.00,Wunderground v.1.15,2013-04-06 15:46:00,
2013-04-06 08:51:00,47.1,42.8,29.90,SSE,163,3.0,14.0,85,0.00,,,0.00,Wunderground v.1.15,2013-04-06 15:51:00,
2013-04-06 08:57:00,47.1,42.8,29.91,South,178,6.0,15.0,85,0.00,,,0.00,Wunderground v.1.15,2013-04-06 15:57:00,
2013-04-06 09:02:00,47.1,43.1,29.91,WSW,240,15.0,15.0,86,0.00,,,0.00,Wunderground v.1.15,2013-04-06 16:02:00,
2013-04-06 09:07:00,47.1,42.8,29.91,SSW,194,8.0,15.0,85,0.00,,,0.00,Wunderground v.1.15,2013-04-06 16:07:00,
2013-04-06 09:12:00,47.0,43.0,29.91,South,175,11.0,17.0,86,0.00,,,0.00,Wunderground v.1.15,2013-04-06 16:12:00,
2013-04-06 09:17:00,47.0,43.0,29.92,SSW,200,13.0,19.0,86,0.00,,,0.00,Wunderground v.1.15,2013-04-06 16:17:00,
2013-04-06 09:22:00,47.3,43.0,29.92,SSE,166,11.0,12.0,85,0.00,,,0.00,Wunderground v.1.15,2013-04-06 16:22:00,
2013-04-06 09:27:00,47.4,43.1,29.92,South,169,10.0,14.0,85,0.00,,,0.00,Wunderground v.1.15,2013-04-06 16:27:00,
2013-04-06 09:32:00,47.4,42.8,29.92,SW,231,10.0,12.0,84,0.00,,,0.00,Wunderground v.1.15,2013-04-06 16:32:00,
2013-04-06 09:37:00,47.6,43.0,29.92,SW,215,7.0,15.0,84,0.00,,,0.00,Wunderground v.1.15,2013-04-06 16:37:00,
2013-04-06 09:42:00,47.8,42.9,29.92,SSE,165,6.0,15.0,83,0.00,,,0.00,Wunderground v.1.15,2013-04-06 16:42:00,
2013-04-06 09:47:00,48.1,43.2,29.93,SSW,211,7.0,15.0,83,0.00,,,0.00,Wunderground v.1.15,2013-04-06 16:47:00,
2013-04-06 09:52:00,48.5,43.3,29.93,South,184,1.0,13.0,82,0.00,,,0.00,Wunderground v.1.15,2013-04-06 16:52:00,
2013-04-06 09:57:00,48.9,43.3,29.93,SSW,196,5.0,14.0,81,0.00,,,0.00,Wunderground v.1.15,2013-04-06 16:57:00,
2013-04-06 10:02:00,49.2,43.3,29.93,South,184,6.0,16.0,80,0.00,,,0.00,Wunderground v.1.15,2013-04-06 17:02:00,
2013-04-06 10:07:00,49.3,43.1,29.93,SW,224,12.0,17.0,79,0.00,,,0.00,Wunderground v.1.15,2013-04-06 17:07:00,
2013-04-06 10:13:00,49.2,43.0,29.93,SW,214,7.0,18.0,79,0.00,,,0.00,Wunderground v.1.15,2013-04-06 17:13:00,
2013-04-06 10:18:00,49.4,43.5,29.93,South,190,5.0,18.0,80,0.00,,,0.00,Wunderground v.1.15,2013-04-06 17:18:00,
2013-04-06 10:23:00,49.9,43.6,29.93,ESE,120,7.0,16.0,79,0.00,,,0.00,Wunderground v.1.15,2013-04-06 17:23:00,
2013-04-06 10:28:00,50.1,43.8,29.93,SW,227,9.0,19.0,79,0.00,,,0.00,Wunderground v.1.15,2013-04-06 17:28:00,
2013-04-06 10:33:00,50.3,43.7,29.94,SE,146,4.0,18.0,78,0.00,,,0.00,Wunderground v.1.15,2013-04-06 17:33:00,
2013-04-06 10:38:00,50.6,44.0,29.94,SSW,209,5.0,20.0,78,0.00,,,0.00,Wunderground v.1.15,2013-04-06 17:38:00,
2013-04-06 10:43:00,51.0,44.0,29.94,SSW,207,10.0,20.0,77,0.00,,,0.00,Wunderground v.1.15,2013-04-06 17:43:00,
2013-04-06 10:48:00,51.2,43.9,29.94,WNW,286,6.0,20.0,76,0.00,,,0.00,Wunderground v.1.15,2013-04-06 17:48:00,
2013-04-06 10:53:00,51.5,44.5,29.94,SW,218,9.0,18.0,77,0.00,,,0.00,Wunderground v.1.15,2013-04-06 17:53:00,
2013-04-06 10:58:00,51.5,44.2,29.95,SSE,152,11.0,18.0,76,0.00,,,0.00,Wunderground v.1.15,2013-04-06 17:58:00,
2013-04-06 11:03:00,51.6,43.6,29.95,SSE,150,11.0,21.0,74,0.00,,,0.00,Wunderground v.1.15,2013-04-06 18:03:00,
2013-04-06 11:08:00,51.5,43.5,29.96,SW,216,12.0,21.0,74,0.00,,,0.00,Wunderground v.1.15,2013-04-06 18:08:00,
2013-04-06 11:13:00,50.9,43.6,29.95,SW,221,5.0,15.0,76,0.00,,,0.00,Wunderground v.1.15,2013-04-06 18:13:00,
2013-04-06 11:18:00,51.3,43.6,29.95,WSW,244,10.0,15.0,75,0.00,,,0.00,Wunderground v.1.15,2013-04-06 18:18:00,
2013-04-06 11:23:00,51.3,43.3,29.95,SW,229,13.0,16.0,74,0.00,,,0.00,Wunderground v.1.15,2013-04-06 18:23:00,
2013-04-06 11:28:00,51.3,43.3,29.96,South,169,9.0,16.0,74,0.00,,,0.00,Wunderground v.1.15,2013-04-06 18:28:00,
2013-04-06 11:33:00,50.8,43.5,29.96,SSW,207,6.0,14.0,76,0.00,,,0.00,Wunderground v.1.15,2013-04-06 18:33:00,
2013-04-06 11:38:00,50.3,43.4,29.96,WSW,238,6.0,14.0,77,0.00,,,0.00,Wunderground v.1.15,2013-04-06 18:38:00,
2013-04-06 11:43:00,50.0,43.4,29.97,SSE,167,3.0,13.0,78,0.00,,,0.00,Wunderground v.1.15,2013-04-06 18:43:00,
2013-04-06 11:48:00,49.7,43.5,29.97,West,279,9.0,13.0,79,0.00,,,0.01,Wunderground v.1.15,2013-04-06 18:48:00,
2013-04-06 11:53:00,48.9,42.7,29.97,WSW,256,9.0,17.0,79,0.32,,,0.03,Wunderground v.1.15,2013-04-06 18:53:00,
2013-04-06 11:58:00,47.7,42.5,29.97,West,277,6.0,17.0,82,0.24,,,0.05,Wunderground v.1.15,2013-04-06 18:58:00,
2013-04-06 12:03:00,47.1,42.5,29.97,West,264,3.0,13.0,84,0.24,,,0.07,Wunderground v.1.15,2013-04-06 19:03:00,
2013-04-06 12:08:00,46.5,42.2,29.97,West,279,5.0,14.0,85,0.16,,,0.08,Wunderground v.1.15,2013-04-06 19:08:00,
2013-04-06 12:13:00,46.3,42.6,29.97,WSW,242,5.0,6.0,87,0.14,,,0.09,Wunderground v.1.15,2013-04-06 19:13:00,
2013-04-06 12:18:00,46.2,42.5,29.98,West,267,11.0,15.0,87,0.08,,,0.10,Wunderground v.1.15,2013-04-06 19:18:00,
2013-04-06 12:23:00,46.1,42.4,29.98,West,281,7.0,10.0,87,0.20,,,0.12,Wunderground v.1.15,2013-04-06 19:23:00,
2013-04-06 12:28:00,46.1,42.4,29.98,West,273,3.0,13.0,87,0.16,,,0.13,Wunderground v.1.15,2013-04-06 19:28:00,
2013-04-06 12:33:00,46.1,42.7,29.98,SW,226,1.0,9.0,88,0.12,,,0.14,Wunderground v.1.15,2013-04-06 19:33:00,
2013-04-06 12:38:00,46.4,43.3,29.98,WNW,300,3.0,9.0,89,0.17,,,0.15,Wunderground v.1.15,2013-04-06 19:38:00,
2013-04-06 12:43:00,46.4,43.0,29.98,SW,222,4.0,9.0,88,0.07,,,0.15,Wunderground v.1.15,2013-04-06 19:43:00,
2013-04-06 12:48:00,46.5,43.1,29.98,WSW,244,3.0,9.0,88,0.05,,,0.15,Wunderground v.1.15,2013-04-06 19:48:00,
2013-04-06 12:53:00,46.6,42.6,29.98,WSW,239,0.0,6.0,86,0.00,,,0.15,Wunderground v.1.15,2013-04-06 19:53:00,
2013-04-06 12:58:00,46.8,42.8,29.98,WSW,255,0.0,6.0,86,0.00,,,0.15,Wunderground v.1.15,2013-04-06 19:58:00,
2013-04-06 13:03:00,46.8,42.8,29.98,SW,215,3.0,8.0,86,0.00,,,0.16,Wunderground v.1.15,2013-04-06 20:03:00,
2013-04-06 13:09:00,46.8,42.8,29.98,West,273,4.0,11.0,86,0.00,,,0.16,Wunderground v.1.15,2013-04-06 20:09:00,
2013-04-06 13:14:00,46.7,42.7,29.98,SW,233,0.0,9.0,86,0.00,,,0.16,Wunderground v.1.15,2013-04-06 20:14:00,
2013-04-06 13:19:00,46.5,42.5,29.99,West,276,3.0,9.0,86,0.05,,,0.17,Wunderground v.1.15,2013-04-06 20:19:00,
2013-04-06 13:24:00,46.3,42.6,29.99,West,279,5.0,12.0,87,0.11,,,0.18,Wunderground v.1.15,2013-04-06 20:24:00,
2013-04-06 13:29:00,46.1,42.7,29.99,West,259,12.0,12.0,88,0.14,,,0.19,Wunderground v.1.15,2013-04-06 20:29:00,
2013-04-06 13:34:00,46.0,42.6,29.99,SW,232,5.0,10.0,88,0.12,,,0.20,Wunderground v.1.15,2013-04-06 20:34:00,
2013-04-06 13:39:00,45.8,42.2,29.99,West,275,4.0,11.0,87,0.39,,,0.23,Wunderground v.1.15,2013-04-06 20:39:00,
2013-04-06 13:44:00,45.5,42.2,29.99,South,174,6.0,6.0,88,0.21,,,0.26,Wunderground v.1.15,2013-04-06 20:44:00,
2013-04-06 13:49:00,45.4,42.1,29.99,South,186,5.0,11.0,88,0.13,,,0.27,Wunderground v.1.15,2013-04-06 20:49:00,
2013-04-06 13:54:00,45.5,41.9,29.99,SW,216,5.0,11.0,87,0.17,,,0.28,Wunderground v.1.15,2013-04-06 20:54:00,
2013-04-06 13:59:00,45.6,42.0,29.99,SSW,213,9.0,9.0,87,0.26,,,0.30,Wunderground v.1.15,2013-04-06 20:59:00,
2013-04-06 14:05:00,45.9,42.5,29.99,SW,225,10.0,11.0,88,0.12,,,0.30,Wunderground v.1.15,2013-04-06 21:05:00,
2013-04-06 14:10:00,46.8,43.4,29.99,SW,218,3.0,9.0,88,0.06,,,0.30,Wunderground v.1.15,2013-04-06 21:10:00,
2013-04-06 14:15:00,47.4,44.0,29.99,South,175,6.0,11.0,88,0.04,,,0.30,Wunderground v.1.15,2013-04-06 21:15:00,
2013-04-06 14:20:00,47.9,44.5,29.98,SSW,196,4.0,5.0,88,0.00,,,0.30,Wunderground v.1.15,2013-04-06 21:20:00,
2013-04-06 14:25:00,48.4,45.0,29.98,South,188,3.0,10.0,88,0.00,,,0.30,Wunderground v.1.15,2013-04-06 21:25:00,
2013-04-06 14:30:00,48.6,44.9,29.98,South,177,4.0,13.0,87,0.00,,,0.30,Wunderground v.1.15,2013-04-06 21:30:00,
2013-04-06 14:35:00,48.4,44.4,29.98,South,187,4.0,13.0,86,0.00,,,0.30,Wunderground v.1.15,2013-04-06 21:35:00,
2013-04-06 14:40:00,48.9,44.6,29.98,South,187,6.0,6.0,85,0.00,,,0.30,Wunderground v.1.15,2013-04-06 21:40:00,
2013-04-06 14:45:00,49.3,44.0,29.98,South,182,3.0,9.0,82,0.00,,,0.30,Wunderground v.1.15,2013-04-06 21:45:00,
2013-04-06 14:50:00,50.0,44.4,29.97,SSW,192,14.0,14.0,81,0.00,,,0.30,Wunderground v.1.15,2013-04-06 21:50:00,
2013-04-06 14:55:00,50.1,43.8,29.98,WSW,239,8.0,15.0,79,0.00,,,0.30,Wunderground v.1.15,2013-04-06 21:55:00,
2013-04-06 15:00:00,50.0,44.1,29.98,WSW,258,13.0,16.0,80,0.00,,,0.30,Wunderground v.1.15,2013-04-06 22:00:00,
2013-04-06 15:05:00,49.8,43.9,29.98,SSE,165,7.0,18.0,80,0.00,,,0.30,Wunderground v.1.15,2013-04-06 22:05:00,
2013-04-06 15:10:00,49.9,44.0,29.98,South,178,6.0,13.0,80,0.00,,,0.30,Wunderground v.1.15,2013-04-06 22:10:00,
2013-04-06 15:15:00,50.5,44.6,29.98,SW,221,11.0,13.0,80,0.00,,,0.30,Wunderground v.1.15,2013-04-06 22:15:00,
2013-04-06 15:20:00,50.4,44.1,29.98,SSW,197,4.0,12.0,79,0.00,,,0.30,Wunderground v.1.15,2013-04-06 22:20:00,
2013-04-06 15:25:00,50.6,44.3,29.98,SSW,202,10.0,19.0,79,0.00,,,0.31,Wunderground v.1.15,2013-04-06 22:25:00,
2013-04-06 15:30:00,50.9,44.3,29.98,South,176,12.0,12.0,78,0.00,,,0.31,Wunderground v.1.15,2013-04-06 22:30:00,
2013-04-06 15:36:00,50.9,44.3,29.98,SSW,200,5.0,12.0,78,0.00,,,0.31,Wunderground v.1.15,2013-04-06 22:36:00,
2013-04-06 15:41:00,50.6,43.7,29.98,SW,217,13.0,14.0,77,0.00,,,0.31,Wunderground v.1.15,2013-04-06 22:41:00,
2013-04-06 15:46:00,51.0,44.0,29.98,SSW,211,11.0,14.0,77,0.00,,,0.31,Wunderground v.1.15,2013-04-06 22:46:00,
2013-04-06 15:51:00,51.2,44.6,29.98,SW,224,10.0,13.0,78,0.00,,,0.31,Wunderground v.1.15,2013-04-06 22:51:00,
2013-04-06 15:56:00,51.3,44.7,29.98,South,171,2.0,14.0,78,0.00,,,0.31,Wunderground v.1.15,2013-04-06 22:56:00,
2013-04-06 16:01:00,51.0,44.4,29.98,South,173,7.0,11.0,78,0.00,,,0.31,Wunderground v.1.15,2013-04-06 23:01:00,
2013-04-06 16:06:00,50.5,44.2,29.98,South,186,6.0,16.0,79,0.00,,,0.31,Wunderground v.1.15,2013-04-06 23:06:00,
2013-04-06 16:11:00,50.3,44.0,29.98,SW,220,3.0,12.0,79,0.00,,,0.31,Wunderground v.1.15,2013-04-06 23:11:00,
2013-04-06 16:17:00,50.1,43.8,29.99,SSE,147,3.0,12.0,79,0.00,,,0.31,Wunderground v.1.15,2013-04-06 23:17:00,
2013-04-06 16:22:00,49.8,43.9,29.98,SSE,148,7.0,11.0,80,0.00,,,0.31,Wunderground v.1.15,2013-04-06 23:22:00,
2013-04-06 16:27:00,49.1,43.5,29.99,NW,314,13.0,20.0,81,0.00,,,0.32,Wunderground v.1.15,2013-04-06 23:27:00,
2013-04-06 16:32:00,47.8,42.3,29.99,South,171,10.0,15.0,81,0.16,,,0.33,Wunderground v.1.15,2013-04-06 23:32:00,
2013-04-06 16:37:00,47.1,42.2,29.99,SW,220,5.0,15.0,83,0.26,,,0.34,Wunderground v.1.15,2013-04-06 23:37:00,
2013-04-06 16:42:00,46.7,42.1,29.99,SSE,156,4.0,13.0,84,0.19,,,0.36,Wunderground v.1.15,2013-04-06 23:42:00,
2013-04-06 16:47:00,46.9,42.3,29.99,South,186,0.0,13.0,84,0.07,,,0.36,Wunderground v.1.15,2013-04-06 23:47:00,
2013-04-06 16:52:00,47.3,42.7,29.98,SSW,204,0.0,3.0,84,0.04,,,0.36,Wunderground v.1.15,2013-04-06 23:52:00,
2013-04-06 16:57:00,47.6,43.0,29.98,South,186,0.0,4.0,84,0.00,,,0.36,Wunderground v.1.15,2013-04-06 23:57:00,
2013-04-06 17:02:00,47.8,43.2,29.98,South,182,3.0,6.0,84,0.00,,,0.36,Wunderground v.1.15,2013-04-07 00:02:00,
2013-04-06 17:07:00,47.7,42.8,29.98,SW,236,1.0,6.0,83,0.00,,,0.36,Wunderground v.1.15,2013-04-07 00:07:00,
2013-04-06 17:12:00,47.8,43.2,29.98,SSW,194,0.0,6.0,84,0.00,,,0.36,Wunderground v.1.15,2013-04-07 00:12:00,
2013-04-06 17:17:00,47.9,43.3,29.98,SSW,207,2.0,6.0,84,0.00,,,0.36,Wunderground v.1.15,2013-04-07 00:17:00,
2013-04-06 17:22:00,48.0,43.4,29.98,SSE,150,0.0,5.0,84,0.00,,,0.36,Wunderground v.1.15,2013-04-07 00:22:00,
2013-04-06 17:27:00,48.1,43.8,29.98,SSW,207,0.0,7.0,85,0.00,,,0.36,Wunderground v.1.15,2013-04-07 00:27:00,
2013-04-06 17:32:00,48.1,43.2,29.98,WSW,242,9.0,10.0,83,0.00,,,0.36,Wunderground v.1.15,2013-04-07 00:32:00,
2013-04-06 17:38:00,48.3,43.4,29.98,West,277,3.0,12.0,83,0.00,,,0.36,Wunderground v.1.15,2013-04-07 00:38:00,
2013-04-06 17:43:00,48.3,43.1,29.98,SSW,210,11.0,16.0,82,0.00,,,0.36,Wunderground v.1.15,2013-04-07 00:43:00,
2013-04-06 17:49:00,47.6,41.7,29.98,SSE,148,0.0,16.0,80,0.15,,,0.38,Wunderground v.1.15,2013-04-07 00:49:00,
2013-04-06 17:54:00,46.9,41.4,29.97,SSW,211,1.0,12.0,81,0.19,,,0.39,Wunderground v.1.15,2013-04-07 00:54:00,
2013-04-06 17:59:00,46.7,41.2,29.97,WSW,251,1.0,3.0,81,0.07,,,0.39,Wunderground v.1.15,2013-04-07 00:59:00,
2013-04-06 18:04:00,46.7,41.5,29.97,South,182,3.0,5.0,82,0.04,,,0.39,Wunderground v.1.15,2013-04-07 01:04:00,
2013-04-06 18:09:00,46.8,41.6,29.97,SSW,202,5.0,5.0,82,0.00,,,0.39,Wunderground v.1.15,2013-04-07 01:09:00,
2013-04-06 18:15:00,46.9,41.7,29.97,SE,141,3.0,11.0,82,0.00,,,0.39,Wunderground v.1.15,2013-04-07 01:15:00,
2013-04-06 18:20:00,46.9,41.7,29.97,South,181,10.0,10.0,82,0.00,,,0.39,Wunderground v.1.15,2013-04-07 01:20:00,
2013-04-06 18:25:00,47.0,42.1,29.97,South,174,5.0,10.0,83,0.00,,,0.39,Wunderground v.1.15,2013-04-07 01:25:00,
2013-04-06 18:30:00,47.3,42.7,29.96,SSE,159,0.0,4.0,84,0.00,,,0.39,Wunderground v.1.15,2013-04-07 01:30:00,
2013-04-06 18:35:00,47.4,43.1,29.96,West,265,1.0,9.0,85,0.00,,,0.39,Wunderground v.1.15,2013-04-07 01:35:00,
2013-04-06 18:40:00,47.3,42.7,29.96,SSE,161,2.0,5.0,84,0.00,,,0.39,Wunderground v.1.15,2013-04-07 01:40:00,
2013-04-06 18:45:00,47.2,42.6,29.96,SSW,202,0.0,11.0,84,0.00,,,0.39,Wunderground v.1.15,2013-04-07 01:45:00,
2013-04-06 18:50:00,47.2,42.3,29.96,SSW,205,1.0,7.0,83,0.00,,,0.39,Wunderground v.1.15,2013-04-07 01:50:00,
2013-04-06 18:55:00,47.1,42.2,29.96,SSE,156,2.0,7.0,83,0.00,,,0.39,Wunderground v.1.15,2013-04-07 01:55:00,
2013-04-06 19:00:00,47.1,42.2,29.96,SE,138,0.0,3.0,83,0.00,,,0.39,Wunderground v.1.15,2013-04-07 02:00:00,
2013-04-06 19:05:00,47.1,41.9,29.96,SSE,162,1.0,11.0,82,0.00,,,0.39,Wunderground v.1.15,2013-04-07 02:05:00,
2013-04-06 19:10:00,47.2,42.0,29.95,WSW,246,1.0,5.0,82,0.00,,,0.39,Wunderground v.1.15,2013-04-07 02:10:00,
2013-04-06 19:15:00,47.3,42.1,29.95,South,188,4.0,15.0,82,0.00,,,0.39,Wunderground v.1.15,2013-04-07 02:15:00,
2013-04-06 19:20:00,47.3,42.4,29.95,SSW,213,5.0,8.0,83,0.00,,,0.39,Wunderground v.1.15,2013-04-07 02:20:00,
2013-04-06 19:25:00,47.3,42.4,29.95,South,169,3.0,17.0,83,0.00,,,0.39,Wunderground v.1.15,2013-04-07 02:25:00,
2013-04-06 19:30:00,47.2,42.3,29.95,SW,215,8.0,8.0,83,0.00,,,0.39,Wunderground v.1.15,2013-04-07 02:30:00,
2013-04-06 19:35:00,47.1,42.2,29.95,SE,145,10.0,16.0,83,0.00,,,0.39,Wunderground v.1.15,2013-04-07 02:35:00,
2013-04-06 19:40:00,47.0,42.1,29.95,South,186,5.0,10.0,83,0.00,,,0.39,Wunderground v.1.15,2013-04-07 02:40:00,
2013-04-06 19:45:00,46.9,42.3,29.95,SW,229,4.0,16.0,84,0.00,,,0.39,Wunderground v.1.15,2013-04-07 02:45:00,
2013-04-06 19:50:00,46.9,42.3,29.95,SW,216,5.0,6.0,84,0.00,,,0.39,Wunderground v.1.15,2013-04-07 02:50:00,
2013-04-06 19:55:00,46.8,42.2,29.94,SSE,168,2.0,7.0,84,0.00,,,0.39,Wunderground v.1.15,2013-04-07 02:55:00,
2013-04-06 20:00:00,46.7,42.4,29.94,SSE,160,0.0,2.0,85,0.00,,,0.39,Wunderground v.1.15,2013-04-07 03:00:00,
2013-04-06 20:05:00,46.7,41.8,29.94,SE,144,3.0,9.0,83,0.00,,,0.39,Wunderground v.1.15,2013-04-07 03:05:00,
2013-04-06 20:10:00,46.8,42.2,29.94,SSW,193,0.0,3.0,84,0.00,,,0.39,Wunderground v.1.15,2013-04-07 03:10:00,
2013-04-06 20:15:00,46.8,42.2,29.94,SSE,153,0.0,5.0,84,0.00,,,0.39,Wunderground v.1.15,2013-04-07 03:15:00,
2013-04-06 20:20:00,46.8,42.2,29.94,South,184,0.0,1.0,84,0.00,,,0.39,Wunderground v.1.15,2013-04-07 03:20:00,
2013-04-06 20:25:00,46.8,41.9,29.94,SSE,163,0.0,6.0,83,0.00,,,0.39,Wunderground v.1.15,2013-04-07 03:25:00,
2013-04-06 20:31:00,46.9,42.0,29.94,South,187,1.0,7.0,83,0.00,,,0.39,Wunderground v.1.15,2013-04-07 03:31:00,
2013-04-06 20:36:00,47.0,42.1,29.94,South,169,0.0,7.0,83,0.00,,,0.39,Wunderground v.1.15,2013-04-07 03:36:00,
2013-04-06 20:41:00,46.9,42.0,29.94,South,169,1.0,4.0,83,0.00,,,0.39,Wunderground v.1.15,2013-04-07 03:41:00,
2013-04-06 20:46:00,46.9,42.0,29.93,SSE,159,1.0,6.0,83,0.00,,,0.39,Wunderground v.1.15,2013-04-07 03:46:00,
2013-04-06 20:51:00,46.9,42.0,29.93,SSE,160,2.0,3.0,83,0.00,,,0.39,Wunderground v.1.15,2013-04-07 03:51:00,
2013-04-06 20:56:00,46.9,41.7,29.93,SSW,204,0.0,7.0,82,0.00,,,0.39,Wunderground v.1.15,2013-04-07 03:56:00,
2013-04-06 21:00:00,47.0,42.1,29.92,SE,138,0.0,1.0,83,0.00,,,0.39,Wunderground v.1.15,2013-04-07 04:00:00,
2013-04-06 21:01:00,46.9,42.0,29.92,SSE,153,2.0,2.0,83,0.00,,,0.39,Wunderground v.1.15,2013-04-07 04:01:00,
2013-04-06 21:06:00,46.8,42.2,29.92,SSE,148,2.0,5.0,84,0.00,,,0.39,Wunderground v.1.15,2013-04-07 04:06:00,
2013-04-06 21:12:00,46.7,42.4,29.92,SSW,200,0.0,4.0,85,0.00,,,0.39,Wunderground v.1.15,2013-04-07 04:12:00,
2013-04-06 21:17:00,46.6,42.3,29.92,South,181,0.0,4.0,85,0.00,,,0.39,Wunderground v.1.15,2013-04-07 04:17:00,
2013-04-06 21:22:00,46.6,42.6,29.92,SSE,162,1.0,6.0,86,0.00,,,0.39,Wunderground v.1.15,2013-04-07 04:22:00,
2013-04-06 21:27:00,46.7,42.7,29.92,SSE,160,4.0,6.0,86,0.00,,,0.39,Wunderground v.1.15,2013-04-07 04:27:00,
2013-04-06 21:32:00,46.7,42.7,29.92,SE,125,2.0,3.0,86,0.00,,,0.39,Wunderground v.1.15,2013-04-07 04:32:00,
2013-04-06 21:37:00,46.7,42.7,29.92,SE,136,2.0,5.0,86,0.00,,,0.39,Wunderground v.1.15,2013-04-07 04:37:00,
2013-04-06 21:42:00,46.7,43.0,29.92,SE,145,3.0,5.0,87,0.00,,,0.39,Wunderground v.1.15,2013-04-07 04:42:00,
2013-04-06 21:47:00,46.6,42.9,29.91,South,178,0.0,5.0,87,0.00,,,0.39,Wunderground v.1.15,2013-04-07 04:47:00,
2013-04-06 21:52:00,46.5,42.8,29.91,South,184,0.0,3.0,87,0.00,,,0.39,Wunderground v.1.15,2013-04-07 04:52:00,
2013-04-06 21:57:00,46.5,42.5,29.91,SW,216,1.0,9.0,86,0.00,,,0.39,Wunderground v.1.15,2013-04-07 04:57:00,
2013-04-06 22:02:00,46.4,41.8,29.90,SSW,199,1.0,6.0,84,0.00,,,0.39,Wunderground v.1.15,2013-04-07 05:02:00,
2013-04-06 22:07:00,46.5,41.9,29.90,ESE,106,2.0,6.0,84,0.00,,,0.39,Wunderground v.1.15,2013-04-07 05:07:00,
2013-04-06 22:12:00,46.5,41.6,29.90,SSE,163,3.0,7.0,83,0.00,,,0.39,Wunderground v.1.15,2013-04-07 05:12:00,
2013-04-06 22:17:00,46.5,41.6,29.90,SSW,211,0.0,7.0,83,0.00,,,0.39,Wunderground v.1.15,2013-04-07 05:17:00,
2013-04-06 22:23:00,46.4,41.5,29.90,SSW,209,5.0,7.0,83,0.00,,,0.39,Wunderground v.1.15,2013-04-07 05:23:00,
2013-04-06 22:28:00,46.4,41.8,29.90,South,174,2.0,7.0,84,0.00,,,0.39,Wunderground v.1.15,2013-04-07 05:28:00,
2013-04-06 22:33:00,46.3,41.7,29.90,SW,230,2.0,7.0,84,0.00,,,0.39,Wunderground v.1.15,2013-04-07 05:33:00,
2013-04-06 22:38:00,46.3,41.7,29.90,SW,215,4.0,9.0,84,0.00,,,0.39,Wunderground v.1.15,2013-04-07 05:38:00,
2013-04-06 22:43:00,46.3,41.7,29.90,SW,217,1.0,6.0,84,0.00,,,0.39,Wunderground v.1.15,2013-04-07 05:43:00,
2013-04-06 22:48:00,46.2,41.6,29.90,West,261,1.0,7.0,84,0.00,,,0.39,Wunderground v.1.15,2013-04-07 05:48:00,
2013-04-06 22:53:00,46.1,41.8,29.89,SSE,160,1.0,6.0,85,0.00,,,0.39,Wunderground v.1.15,2013-04-07 05:53:00,
2013-04-06 22:58:00,46.0,41.7,29.89,SW,215,1.0,6.0,85,0.00,,,0.39,Wunderground v.1.15,2013-04-07 05:58:00,
2013-04-06 23:03:00,45.9,41.6,29.89,South,187,0.0,4.0,85,0.00,,,0.39,Wunderground v.1.15,2013-04-07 06:03:00,
2013-04-06 23:08:00,45.8,41.5,29.89,SSW,195,3.0,4.0,85,0.00,,,0.39,Wunderground v.1.15,2013-04-07 06:08:00,
2013-04-06 23:13:00,45.7,41.4,29.88,SSW,199,0.0,3.0,85,0.00,,,0.39,Wunderground v.1.15,2013-04-07 06:13:00,
2013-04-06 23:18:00,45.6,41.7,29.88,SSW,198,4.0,4.0,86,0.00,,,0.39,Wunderground v.1.15,2013-04-07 06:18:00,
2013-04-06 23:23:00,45.5,41.6,29.88,SSW,192,0.0,5.0,86,0.00,,,0.39,Wunderground v.1.15,2013-04-07 06:23:00,
2013-04-06 23:28:00,45.4,41.5,29.88,SSE,163,0.0,5.0,86,0.00,,,0.39,Wunderground v.1.15,2013-04-07 06:28:00,
2013-04-06 23:33:00,45.3,41.4,29.86,SSE,158,0.0,2.0,86,0.00,,,0.39,Wunderground v.1.15,2013-04-07 06:33:00,
2013-04-06 23:38:00,45.3,41.4,29.86,South,182,0.0,2.0,86,0.00,,,0.39,Wunderground v.1.15,2013-04-07 06:38:00,
2013-04-06 23:43:00,45.3,41.4,29.86,SE,145,0.0,4.0,86,0.00,,,0.39,Wunderground v.1.15,2013-04-07 06:43:00,
2013-04-06 23:49:00,45.2,41.6,29.86,SSE,154,2.0,4.0,87,0.00,,,0.39,Wunderground v.1.15,2013-04-07 06:49:00,
2013-04-06 23:54:00,45.2,41.6,29.85,SSE,161,0.0,2.0,87,0.00,,,0.39,Wunderground v.1.15,2013-04-07 06:54:00,